• In Deutschland
  • Länderverzeichnis
  • Für 7 Tage
  • Wassertemperatur
  • Satellitenkarten
  • Wetterkarte
  • Widgets
  • user-avatar
    Anmelden

    Stündliche Wetter Heidenheim an der Brenz

    Heute, 21 Oktober, Samstag

    Zeit Temperatur Niederschläge Wind Luftdruck Luftfeuchtigkeit
    00:00 +12°C° 0 mm 2 m/S 718 mmHg 90%
    01:00 +12°C° 0 mm 2 m/S 718 mmHg 91%
    02:00 +12°C° 0 mm 2 m/S 718 mmHg 90%
    03:00 +12°C° 0 mm 2 m/S 718 mmHg 90%
    04:00 +12°C° 0 mm 2 m/S 717 mmHg 90%
    05:00 +12°C° 0 mm 2 m/S 717 mmHg 90%
    06:00 +10°C° 0 mm 2 m/S 717 mmHg 90%
    07:00 +10°C° 0 mm 2 m/S 717 mmHg 90%
    08:00 +12°C° 0 mm 3 m/S 718 mmHg 85%
    09:00 +13°C° 0 mm 3 m/S 718 mmHg 79%
    10:00 +15°C° 0 mm 4 m/S 718 mmHg 73%
    11:00 +17°C° 0 mm 4 m/S 717 mmHg 70%
    12:00 +18°C° 0 mm 4 m/S 717 mmHg 67%
    13:00 +19°C° 0 mm 4 m/S 717 mmHg 63%
    14:00 +19°C° 0 mm 3 m/S 717 mmHg 66%
    15:00 +18°C° 0 mm 3 m/S 717 mmHg 69%
    16:00 +18°C° 0 mm 2 m/S 716 mmHg 71%
    17:00 +17°C° 0,1 mm 2 m/S 717 mmHg 77%
    18:00 +15°C° 0,1 mm 2 m/S 717 mmHg 83%
    19:00 +14°C° 0,1 mm 2 m/S 717 mmHg 89%
    20:00 +12°C° 1,2 mm 3 m/S 717 mmHg 90%
    21:00 +11°C° 1,2 mm 4 m/S 717 mmHg 90%
    22:00 +9°C° 1,2 mm 5 m/S 718 mmHg 91%
    23:00 +9°C° 1 mm 5 m/S 718 mmHg 91%

    Morgen, 22 Oktober, Sonntag

    Zeit Temperatur Niederschläge Wind Luftdruck Luftfeuchtigkeit
    00:00 +8°C° 1 mm 4 m/S 718 mmHg 91%
    01:00 +8°C° 1 mm 4 m/S 719 mmHg 91%
    02:00 +8°C° 0,5 mm 4 m/S 719 mmHg 91%
    03:00 +8°C° 0,5 mm 4 m/S 719 mmHg 91%
    04:00 +8°C° 0,5 mm 3 m/S 719 mmHg 92%
    05:00 +8°C° 0,4 mm 3 m/S 719 mmHg 91%
    06:00 +8°C° 0,4 mm 3 m/S 719 mmHg 91%
    07:00 +7°C° 0,4 mm 3 m/S 719 mmHg 91%
    08:00 +8°C° 0,1 mm 3 m/S 719 mmHg 88%
    09:00 +7°C° 0,1 mm 4 m/S 719 mmHg 84%
    10:00 +8°C° 0,1 mm 4 m/S 719 mmHg 81%
    11:00 +8°C° 0,2 mm 4 m/S 719 mmHg 78%
    12:00 +8°C° 0,2 mm 4 m/S 719 mmHg 76%
    13:00 +10°C° 0,2 mm 4 m/S 718 mmHg 73%
    14:00 +10°C° 0,3 mm 4 m/S 718 mmHg 74%
    15:00 +9°C° 0,3 mm 3 m/S 718 mmHg 75%
    16:00 +9°C° 0,3 mm 3 m/S 718 mmHg 76%
    17:00 +8°C° 0,1 mm 3 m/S 718 mmHg 80%
    18:00 +7°C° 0,1 mm 3 m/S 718 mmHg 84%
    19:00 +6°C° 0,1 mm 2 m/S 719 mmHg 87%
    20:00 +5°C° 0,1 mm 3 m/S 719 mmHg 89%
    21:00 +5°C° 0,1 mm 3 m/S 719 mmHg 90%
    22:00 +5°C° 0,1 mm 3 m/S 719 mmHg 92%
    23:00 +5°C° 0,1 mm 3 m/S 719 mmHg 92%

    übermorgen, 23 Oktober, Montag

    Zeit Temperatur Niederschläge Wind Luftdruck Luftfeuchtigkeit
    00:00 +4°C° 0,1 mm 4 m/S 719 mmHg 92%
    01:00 +4°C° 0,1 mm 4 m/S 719 mmHg 93%
    02:00 +4°C° 0,1 mm 4 m/S 719 mmHg 92%
    03:00 +4°C° 0,1 mm 4 m/S 719 mmHg 92%
    04:00 +5°C° 0,1 mm 4 m/S 719 mmHg 92%
    05:00 +5°C° 0,1 mm 4 m/S 720 mmHg 92%
    06:00 +5°C° 0,1 mm 4 m/S 720 mmHg 92%
    07:00 +5°C° 0,1 mm 4 m/S 720 mmHg 92%
    08:00 +5°C° 0,3 mm 4 m/S 720 mmHg 91%
    09:00 +6°C° 0,3 mm 5 m/S 720 mmHg 90%
    10:00 +6°C° 0,3 mm 5 m/S 721 mmHg 89%
    11:00 +6°C° 0,1 mm 5 m/S 721 mmHg 87%
    12:00 +7°C° 0,1 mm 5 m/S 721 mmHg 86%
    13:00 +7°C° 0,1 mm 5 m/S 721 mmHg 84%
    14:00 +7°C° 0,2 mm 4 m/S 721 mmHg 85%
    15:00 +7°C° 0,2 mm 4 m/S 721 mmHg 86%
    16:00 +7°C° 0,2 mm 4 m/S 721 mmHg 87%
    17:00 +8°C° 0,1 mm 3 m/S 721 mmHg 89%
    18:00 +7°C° 0,1 mm 3 m/S 721 mmHg 92%
    19:00 +6°C° 0,1 mm 2 m/S 722 mmHg 94%
    20:00 +6°C° 0 mm 2 m/S 722 mmHg 95%
    21:00 +6°C° 0 mm 2 m/S 722 mmHg 95%
    22:00 +6°C° 0 mm 2 m/S 722 mmHg 96%
    23:00 +6°C° 0 mm 2 m/S 722 mmHg 96%

    24 Oktober, Dienstag

    Zeit Temperatur Niederschläge Wind Luftdruck Luftfeuchtigkeit
    00:00 +6°C° 0 mm 2 m/S 722 mmHg 96%
    01:00 +6°C° 0 mm 2 m/S 722 mmHg 96%
    02:00 +7°C° 0,1 mm 2 m/S 722 mmHg 96%
    03:00 +7°C° 0,1 mm 2 m/S 722 mmHg 95%
    04:00 +7°C° 0,1 mm 2 m/S 722 mmHg 95%
    05:00 +7°C° 0,1 mm 2 m/S 723 mmHg 95%
    06:00 +7°C° 0,1 mm 2 m/S 723 mmHg 95%
    07:00 +7°C° 0,1 mm 2 m/S 723 mmHg 95%
    08:00 +8°C° 0,1 mm 2 m/S 723 mmHg 93%
    09:00 +8°C° 0,1 mm 2 m/S 723 mmHg 91%
    10:00 +9°C° 0,1 mm 2 m/S 724 mmHg 90%
    11:00 +10°C° 0,1 mm 2 m/S 724 mmHg 88%
    12:00 +10°C° 0,1 mm 2 m/S 723 mmHg 87%
    13:00 +12°C° 0,1 mm 2 m/S 723 mmHg 86%
    14:00 +12°C° 0 mm 2 m/S 723 mmHg 87%
    15:00 +12°C° 0 mm 2 m/S 723 mmHg 88%
    16:00 +12°C° 0 mm 1 m/S 723 mmHg 89%
    17:00 +12°C° 0 mm 1 m/S 724 mmHg 91%
    18:00 +11°C° 0 mm 1 m/S 724 mmHg 93%
    19:00 +11°C° 0 mm 1 m/S 724 mmHg 95%
    20:00 +11°C° 0 mm 1 m/S 724 mmHg 95%
    21:00 +10°C° 0 mm 1 m/S 724 mmHg 95%
    22:00 +10°C° 0 mm 1 m/S 724 mmHg 95%
    23:00 +10°C° 0 mm 1 m/S 724 mmHg 95%

    25 Oktober, Mittwoch

    Zeit Temperatur Niederschläge Wind Luftdruck Luftfeuchtigkeit
    00:00 +9°C° 0 mm 1 m/S 724 mmHg 95%
    01:00 +9°C° 0 mm 1 m/S 724 mmHg 95%
    02:00 +9°C° 0 mm 1 m/S 724 mmHg 95%
    03:00 +9°C° 0 mm 1 m/S 724 mmHg 95%
    04:00 +8°C° 0 mm 1 m/S 724 mmHg 95%
    05:00 +8°C° 0 mm 1 m/S 724 mmHg 95%
    06:00 +8°C° 0 mm 1 m/S 724 mmHg 95%
    07:00 +8°C° 0 mm 1 m/S 724 mmHg 94%
    08:00 +10°C° 0 mm 1 m/S 724 mmHg 90%
    09:00 +12°C° 0 mm 1 m/S 724 mmHg 85%
    10:00 +13°C° 0 mm 1 m/S 724 mmHg 80%
    11:00 +14°C° 0 mm 1 m/S 724 mmHg 76%
    12:00 +16°C° 0 mm 1 m/S 724 mmHg 71%
    13:00 +18°C° 0 mm 1 m/S 724 mmHg 67%
    14:00 +18°C° 0 mm 1 m/S 724 mmHg 70%
    15:00 +16°C° 0 mm 1 m/S 724 mmHg 73%
    16:00 +16°C° 0 mm 1 m/S 723 mmHg 76%
    17:00 +15°C° 0 mm 1 m/S 724 mmHg 80%
    18:00 +13°C° 0 mm 1 m/S 724 mmHg 85%
    19:00 +11°C° 0 mm 1 m/S 724 mmHg 89%
    20:00 +11°C° 0 mm 1 m/S 724 mmHg 90%
    21:00 +11°C° 0 mm 1 m/S 724 mmHg 91%
    22:00 +10°C° 0 mm 1 m/S 724 mmHg 91%
    23:00 +10°C° 0 mm 1 m/S 724 mmHg 91%

    26 Oktober, Donnerstag

    Zeit Temperatur Niederschläge Wind Luftdruck Luftfeuchtigkeit
    00:00 +10°C° 0 mm 1 m/S 724 mmHg 91%
    01:00 +9°C° 0 mm 1 m/S 724 mmHg 91%
    02:00 +9°C° 0 mm 1 m/S 724 mmHg 91%
    03:00 +9°C° 0 mm 1 m/S 724 mmHg 91%
    04:00 +9°C° 0 mm 1 m/S 723 mmHg 91%
    05:00 +9°C° 0 mm 1 m/S 724 mmHg 90%
    06:00 +9°C° 0 mm 1 m/S 724 mmHg 90%
    07:00 +8°C° 0 mm 1 m/S 724 mmHg 89%
    08:00 +10°C° 0 mm 1 m/S 724 mmHg 83%
    09:00 +12°C° 0 mm 1 m/S 724 mmHg 77%
    10:00 +14°C° 0 mm 1 m/S 724 mmHg 70%
    11:00 +15°C° 0 mm 1 m/S 724 mmHg 67%
    12:00 +18°C° 0 mm 1 m/S 724 mmHg 64%
    13:00 +19°C° 0 mm 1 m/S 724 mmHg 60%
    14:00 +18°C° 0 mm 1 m/S 724 mmHg 65%
    15:00 +18°C° 0 mm 1 m/S 724 mmHg 69%
    16:00 +16°C° 0 mm 1 m/S 724 mmHg 73%
    17:00 +15°C° 0 mm 1 m/S 724 mmHg 78%
    18:00 +13°C° 0 mm 1 m/S 724 mmHg 82%
    19:00 +12°C° 0 mm 1 m/S 724 mmHg 87%
    20:00 +12°C° 0 mm 1 m/S 724 mmHg 87%
    21:00 +11°C° 0 mm 1 m/S 724 mmHg 88%
    22:00 +11°C° 0 mm 1 m/S 724 mmHg 88%
    23:00 +11°C° 0 mm 1 m/S 724 mmHg 88%
    Mehr zeigen